Zurück zum Katalog

STARLINK-5626

AktivKommunikationVLEO
NORAD 55435·PAYLOAD·🇺🇸 United States

Gestartet Jan 31, 2023 von Vandenberg Space Force Base

Loading…

Nächste Überflüge (nächste 24 Stunden)

TLE

AktuellSource: CelesTrak SupGP

Epoche: Sep 15, 2026, 03:14 UTC

1 55435C 23014AW  26258.13520833  .00068482  00000+0  57415-2 0  2589
2 55435  70.0016 346.7704 0003613 268.1185 195.2170 14.98278394    14

Verfolge STARLINK-5626 in Echtzeit mit AllMySat

Download on the App Store